Volver al catálogo

CHAMRAN-1

ActivoCienciaVLEO
NORAD 61072·PAYLOAD·🇮🇷 Iran

Lanzado Sep 14, 2024 desde Shahroud Space Center

Loading…

Próximos Pases (próximas 24 horas)

TLE

ActualizadoSource: Space-Track

Época: Sep 14, 2026, 03:11 UTC

1 61072U 24165B   26257.13309090  .00002858  00000-0  17178-3 0  9991
2 61072  64.0740 109.5202 0060628 301.8931  57.6295 15.11679936110100

Sigue CHAMRAN-1 en tiempo real con AllMySat

Download on the App Store